Time,TemperatureF,DewpointF,PressureIn,WindDirection,WindDirectionDegrees,WindSpeedMPH,WindSpeedGustMPH,Humidity,HourlyPrecipIn,Conditions,Clouds,dailyrainin,SoftwareType,DateUTC
2013-02-16 00:02:00,21.0,16.0,30.37,South,169,0.0,1.0,82,-99.99,,,-99.99,,2013-02-16 07:02:00,
2013-02-16 00:11:00,21.0,16.0,30.37,South,169,0.0,1.0,82,-99.99,,,-99.99,,2013-02-16 07:11:00,
2013-02-16 00:21:00,22.0,16.0,30.37,SSE,165,0.0,2.0,79,-99.99,,,-99.99,,2013-02-16 07:21:00,
2013-02-16 00:31:00,21.0,16.0,30.37,North,0,0.0,0.0,82,-99.99,,,-99.99,,2013-02-16 07:31:00,
2013-02-16 00:42:00,21.0,16.0,30.37,North,0,0.0,0.0,82,-99.99,,,-99.99,,2013-02-16 07:42:00,
2013-02-16 00:53:00,21.0,17.0,30.37,North,5,0.0,0.0,83,-99.99,,,-99.99,,2013-02-16 07:53:00,
2013-02-16 01:01:00,21.0,17.0,30.37,North,5,0.0,0.0,84,-99.99,,,-99.99,,2013-02-16 08:01:00,
2013-02-16 01:11:00,21.0,17.0,30.37,North,5,0.0,0.0,84,-99.99,,,-99.99,,2013-02-16 08:11:00,
2013-02-16 01:21:00,21.0,17.0,30.37,SE,132,0.0,1.0,86,-99.99,,,-99.99,,2013-02-16 08:21:00,
2013-02-16 01:31:00,21.0,17.0,30.37,SSE,163,0.0,0.0,85,-99.99,,,-99.99,,2013-02-16 08:31:00,
2013-02-16 01:41:00,21.0,17.0,30.37,SSE,163,0.0,0.0,85,-99.99,,,-99.99,,2013-02-16 08:41:00,
2013-02-16 01:52:00,20.0,16.0,30.37,North,0,0.0,0.0,85,-99.99,,,-99.99,,2013-02-16 08:52:00,
2013-02-16 02:01:00,19.0,16.0,30.36,NNE,23,0.0,1.0,86,-99.99,,,-99.99,,2013-02-16 09:01:00,
2013-02-16 02:11:00,19.0,16.0,30.36,NNE,23,0.0,1.0,86,-99.99,,,-99.99,,2013-02-16 09:11:00,
2013-02-16 02:21:00,19.0,15.0,30.36,NW,323,0.0,0.0,85,-99.99,,,-99.99,,2013-02-16 09:21:00,
2013-02-16 02:31:00,19.0,15.0,30.36,NW,323,0.0,0.0,85,-99.99,,,-99.99,,2013-02-16 09:31:00,
2013-02-16 02:42:00,19.0,15.0,30.36,NW,323,0.0,0.0,85,-99.99,,,-99.99,,2013-02-16 09:42:00,
2013-02-16 02:52:00,19.0,15.0,30.36,North,0,0.0,0.0,84,-99.99,,,-99.99,,2013-02-16 09:52:00,
2013-02-16 03:01:00,18.0,14.0,30.36,NNE,16,0.0,0.0,84,-99.99,,,-99.99,,2013-02-16 10:01:00,
2013-02-16 03:11:00,18.0,14.0,30.36,NNE,16,0.0,0.0,84,-99.99,,,-99.99,,2013-02-16 10:11:00,
2013-02-16 03:21:00,18.0,14.0,30.36,SE,140,0.0,1.0,84,-99.99,,,-99.99,,2013-02-16 10:21:00,
2013-02-16 03:31:00,19.0,14.0,30.35,South,170,0.0,0.0,81,-99.99,,,-99.99,,2013-02-16 10:31:00,
2013-02-16 03:41:00,19.0,14.0,30.35,South,170,0.0,0.0,81,-99.99,,,-99.99,,2013-02-16 10:41:00,
2013-02-16 03:52:00,19.0,13.0,30.35,South,170,0.0,0.0,78,-99.99,,,-99.99,,2013-02-16 10:52:00,
2013-02-16 04:02:00,19.0,13.0,30.35,South,170,0.0,1.0,76,-99.99,,,-99.99,,2013-02-16 11:02:00,
2013-02-16 04:11:00,19.0,13.0,30.35,South,170,0.0,1.0,76,-99.99,,,-99.99,,2013-02-16 11:11:00,
2013-02-16 04:22:00,20.0,13.0,30.34,SSE,163,0.0,1.0,74,-99.99,,,-99.99,,2013-02-16 11:22:00,
2013-02-16 04:31:00,20.0,13.0,30.34,NNE,27,0.0,1.0,74,-99.99,,,-99.99,,2013-02-16 11:31:00,
2013-02-16 04:42:00,20.0,13.0,30.34,NNE,27,0.0,1.0,74,-99.99,,,-99.99,,2013-02-16 11:42:00,
2013-02-16 04:52:00,19.0,13.0,30.34,NNE,33,0.0,1.0,76,-99.99,,,-99.99,,2013-02-16 11:52:00,
2013-02-16 05:01:00,19.0,13.0,30.32,NNE,26,0.0,1.0,76,-99.99,,,-99.99,,2013-02-16 12:01:00,
2013-02-16 05:12:00,19.0,13.0,30.32,NNE,26,0.0,1.0,76,-99.99,,,-99.99,,2013-02-16 12:12:00,
2013-02-16 05:22:00,18.0,13.0,30.32,NNE,25,0.0,1.0,79,-99.99,,,-99.99,,2013-02-16 12:22:00,
2013-02-16 05:32:00,18.0,13.0,30.32,NNE,25,0.0,0.0,81,-99.99,,,-99.99,,2013-02-16 12:32:00,
2013-02-16 05:42:00,18.0,13.0,30.32,NNE,25,0.0,0.0,81,-99.99,,,-99.99,,2013-02-16 12:42:00,
2013-02-16 05:52:00,18.0,13.0,30.31,SSE,151,0.0,0.0,80,-99.99,,,-99.99,,2013-02-16 12:52:00,
2013-02-16 06:01:00,19.0,13.0,30.32,SSE,151,0.0,1.0,78,-99.99,,,-99.99,,2013-02-16 13:01:00,
2013-02-16 06:11:00,19.0,13.0,30.32,SSE,151,0.0,1.0,78,-99.99,,,-99.99,,2013-02-16 13:11:00,
2013-02-16 06:21:00,19.0,14.0,30.31,SSE,153,1.0,4.0,79,-99.99,,,-99.99,,2013-02-16 13:21:00,
2013-02-16 06:31:00,19.0,14.0,30.31,SSE,153,1.0,4.0,79,-99.99,,,-99.99,,2013-02-16 13:31:00,
2013-02-16 06:41:00,19.0,14.0,30.31,SSE,153,1.0,4.0,79,-99.99,,,-99.99,,2013-02-16 13:41:00,
2013-02-16 07:01:00,20.0,14.0,30.31,SSE,149,0.0,2.0,78,-99.99,,,-99.99,,2013-02-16 14:01:00,
2013-02-16 07:11:00,20.0,14.0,30.31,SSE,149,0.0,2.0,78,-99.99,,,-99.99,,2013-02-16 14:11:00,
2013-02-16 07:21:00,20.0,13.0,30.31,ESE,106,0.0,2.0,74,-99.99,,,-99.99,,2013-02-16 14:21:00,
2013-02-16 07:32:00,20.0,12.0,30.30,SSE,148,0.0,0.0,71,-99.99,,,-99.99,,2013-02-16 14:32:00,
2013-02-16 07:41:00,20.0,12.0,30.30,SSE,148,0.0,0.0,71,-99.99,,,-99.99,,2013-02-16 14:41:00,
2013-02-16 07:52:00,20.0,11.0,30.30,South,171,0.0,2.0,69,-99.99,,,-99.99,,2013-02-16 14:52:00,
2013-02-16 08:01:00,20.0,11.0,30.30,SE,145,0.0,0.0,67,-99.99,,,-99.99,,2013-02-16 15:01:00,
2013-02-16 08:11:00,20.0,11.0,30.30,SE,145,0.0,0.0,67,-99.99,,,-99.99,,2013-02-16 15:11:00,
2013-02-16 08:21:00,20.0,11.0,30.30,SE,142,0.0,2.0,67,-99.99,,,-99.99,,2013-02-16 15:21:00,
2013-02-16 08:31:00,21.0,11.0,30.30,ENE,77,0.0,2.0,65,-99.99,,,-99.99,,2013-02-16 15:31:00,
2013-02-16 08:41:00,21.0,11.0,30.30,ENE,77,0.0,2.0,65,-99.99,,,-99.99,,2013-02-16 15:41:00,
2013-02-16 08:52:00,21.0,11.0,30.30,East,99,0.0,2.0,65,-99.99,,,-99.99,,2013-02-16 15:52:00,
2013-02-16 09:01:00,22.0,12.0,30.30,SE,132,0.0,2.0,65,-99.99,,,-99.99,,2013-02-16 16:01:00,
2013-02-16 09:11:00,22.0,12.0,30.30,SE,132,0.0,2.0,65,-99.99,,,-99.99,,2013-02-16 16:11:00,
2013-02-16 09:21:00,22.0,11.0,30.30,ESE,121,1.0,3.0,61,-99.99,,,-99.99,,2013-02-16 16:21:00,
2013-02-16 09:32:00,22.0,12.0,30.30,South,175,0.0,2.0,64,-99.99,,,-99.99,,2013-02-16 16:32:00,
2013-02-16 09:41:00,22.0,12.0,30.30,South,175,0.0,2.0,64,-99.99,,,-99.99,,2013-02-16 16:41:00,
2013-02-16 09:52:00,22.0,13.0,30.30,South,187,0.0,1.0,69,-99.99,,,-99.99,,2013-02-16 16:52:00,
2013-02-16 10:01:00,22.0,14.0,30.30,South,177,0.0,3.0,72,-99.99,,,-99.99,,2013-02-16 17:01:00,
2013-02-16 10:11:00,22.0,14.0,30.30,South,177,0.0,3.0,72,-99.99,,,-99.99,,2013-02-16 17:11:00,
2013-02-16 10:21:00,22.0,15.0,30.29,ESE,105,0.0,2.0,73,-99.99,,,-99.99,,2013-02-16 17:21:00,
2013-02-16 10:31:00,23.0,16.0,30.29,South,176,0.0,3.0,73,-99.99,,,-99.99,,2013-02-16 17:31:00,
2013-02-16 10:41:00,23.0,16.0,30.29,South,176,0.0,3.0,73,-99.99,,,-99.99,,2013-02-16 17:41:00,
2013-02-16 10:52:00,24.0,16.0,30.29,SSE,157,1.0,3.0,72,-99.99,,,-99.99,,2013-02-16 17:52:00,
2013-02-16 11:01:00,24.0,16.0,30.29,SSE,157,1.0,3.0,72,-99.99,,,-99.99,,2013-02-16 18:01:00,
2013-02-16 11:11:00,24.0,16.0,30.29,SSE,157,1.0,3.0,72,-99.99,,,-99.99,,2013-02-16 18:11:00,
2013-02-16 11:21:00,27.0,17.0,30.29,SSW,201,0.0,2.0,66,-99.99,,,-99.99,,2013-02-16 18:21:00,
2013-02-16 11:33:00,28.0,17.0,30.29,SSW,196,0.0,2.0,64,-99.99,,,-99.99,,2013-02-16 18:33:00,
2013-02-16 11:42:00,28.0,17.0,30.29,SSW,196,0.0,2.0,64,-99.99,,,-99.99,,2013-02-16 18:42:00,
2013-02-16 11:52:00,29.0,18.0,30.27,SW,217,0.0,2.0,62,-99.99,,,-99.99,,2013-02-16 18:52:00,
2013-02-16 12:02:00,32.0,18.0,30.27,SW,218,1.0,2.0,56,-99.99,,,-99.99,,2013-02-16 19:02:00,
2013-02-16 12:11:00,32.0,18.0,30.27,SW,218,1.0,2.0,56,-99.99,,,-99.99,,2013-02-16 19:11:00,
2013-02-16 12:21:00,33.0,18.0,30.27,SW,217,1.0,3.0,54,-99.99,,,-99.99,,2013-02-16 19:21:00,
2013-02-16 12:31:00,35.0,19.0,30.26,SW,233,1.0,3.0,52,-99.99,,,-99.99,,2013-02-16 19:31:00,
2013-02-16 12:42:00,35.0,19.0,30.26,SW,233,1.0,3.0,52,-99.99,,,-99.99,,2013-02-16 19:42:00,
2013-02-16 12:52:00,37.0,20.0,30.26,WSW,244,0.0,2.0,49,-99.99,,,-99.99,,2013-02-16 19:52:00,
2013-02-16 13:01:00,38.0,19.0,30.25,SW,229,0.0,2.0,46,-99.99,,,-99.99,,2013-02-16 20:01:00,
2013-02-16 13:11:00,38.0,19.0,30.25,SW,229,0.0,2.0,46,-99.99,,,-99.99,,2013-02-16 20:11:00,
2013-02-16 13:21:00,39.0,19.0,30.25,West,264,1.0,3.0,44,-99.99,,,-99.99,,2013-02-16 20:21:00,
2013-02-16 13:32:00,40.0,19.0,30.24,North,356,2.0,4.0,43,-99.99,,,-99.99,,2013-02-16 20:32:00,
2013-02-16 13:42:00,40.0,19.0,30.24,North,356,2.0,4.0,43,-99.99,,,-99.99,,2013-02-16 20:42:00,
2013-02-16 13:52:00,40.0,19.0,30.22,WSW,244,1.0,2.0,42,-99.99,,,-99.99,,2013-02-16 20:52:00,
2013-02-16 14:02:00,41.0,19.0,30.22,NNW,341,2.0,5.0,40,-99.99,,,-99.99,,2013-02-16 21:02:00,
2013-02-16 14:11:00,41.0,19.0,30.22,NNW,341,2.0,5.0,40,-99.99,,,-99.99,,2013-02-16 21:11:00,
2013-02-16 14:21:00,42.0,18.0,30.21,WSW,243,1.0,2.0,38,-99.99,,,-99.99,,2013-02-16 21:21:00,
2013-02-16 14:31:00,42.0,17.0,30.21,SW,220,1.0,3.0,36,-99.99,,,-99.99,,2013-02-16 21:31:00,
2013-02-16 14:41:00,42.0,17.0,30.21,SW,220,1.0,3.0,36,-99.99,,,-99.99,,2013-02-16 21:41:00,
2013-02-16 14:52:00,42.0,16.0,30.20,SW,226,1.0,4.0,35,-99.99,,,-99.99,,2013-02-16 21:52:00,
2013-02-16 15:01:00,42.0,17.0,30.20,West,279,1.0,3.0,36,-99.99,,,-99.99,,2013-02-16 22:01:00,
2013-02-16 15:11:00,42.0,17.0,30.20,West,279,1.0,3.0,36,-99.99,,,-99.99,,2013-02-16 22:11:00,
2013-02-16 15:21:00,43.0,18.0,30.19,NNW,330,1.0,5.0,36,-99.99,,,-99.99,,2013-02-16 22:21:00,
2013-02-16 15:31:00,42.0,18.0,30.19,WSW,250,1.0,2.0,37,-99.99,,,-99.99,,2013-02-16 22:31:00,
2013-02-16 15:42:00,42.0,18.0,30.19,WSW,250,1.0,2.0,37,-99.99,,,-99.99,,2013-02-16 22:42:00,
2013-02-16 15:52:00,43.0,17.0,30.19,SW,228,0.0,2.0,35,-99.99,,,-99.99,,2013-02-16 22:52:00,
2013-02-16 16:02:00,41.0,17.0,30.17,SSW,213,2.0,4.0,37,-99.99,,,-99.99,,2013-02-16 23:02:00,
2013-02-16 16:11:00,41.0,17.0,30.17,SSW,213,2.0,4.0,37,-99.99,,,-99.99,,2013-02-16 23:11:00,
2013-02-16 16:21:00,41.0,17.0,30.17,SW,218,2.0,5.0,38,-99.99,,,-99.99,,2013-02-16 23:21:00,
2013-02-16 16:31:00,39.0,16.0,30.16,SSW,211,3.0,6.0,39,-99.99,,,-99.99,,2013-02-16 23:31:00,
2013-02-16 16:42:00,39.0,16.0,30.16,SSW,211,3.0,6.0,39,-99.99,,,-99.99,,2013-02-16 23:42:00,
2013-02-16 16:52:00,39.0,16.0,30.16,SSW,210,3.0,6.0,39,-99.99,,,-99.99,,2013-02-16 23:52:00,
2013-02-16 17:02:00,38.0,16.0,30.16,SSW,210,3.0,6.0,41,-99.99,,,-99.99,,2013-02-17 00:02:00,
2013-02-16 17:11:00,38.0,16.0,30.16,SSW,210,3.0,6.0,41,-99.99,,,-99.99,,2013-02-17 00:11:00,
2013-02-16 17:21:00,37.0,16.0,30.15,SSW,207,3.0,6.0,42,-99.99,,,-99.99,,2013-02-17 00:21:00,
2013-02-16 17:31:00,37.0,16.0,30.14,SSW,202,3.0,5.0,42,-99.99,,,-99.99,,2013-02-17 00:31:00,
2013-02-16 17:41:00,37.0,16.0,30.14,SSW,202,3.0,5.0,42,-99.99,,,-99.99,,2013-02-17 00:41:00,
2013-02-16 17:52:00,37.0,16.0,30.14,South,190,1.0,4.0,41,-99.99,,,-99.99,,2013-02-17 00:52:00,
2013-02-16 18:01:00,37.0,16.0,30.12,South,183,0.0,2.0,41,-99.99,,,-99.99,,2013-02-17 01:01:00,
2013-02-16 18:11:00,37.0,16.0,30.12,South,183,0.0,2.0,41,-99.99,,,-99.99,,2013-02-17 01:11:00,
2013-02-16 18:21:00,37.0,13.0,30.11,South,175,2.0,5.0,37,-99.99,,,-99.99,,2013-02-17 01:21:00,
2013-02-16 18:31:00,37.0,13.0,30.11,South,175,2.0,5.0,37,-99.99,,,-99.99,,2013-02-17 01:31:00,
2013-02-16 18:41:00,37.0,13.0,30.11,South,175,2.0,5.0,37,-99.99,,,-99.99,,2013-02-17 01:41:00,
2013-02-16 18:52:00,35.0,12.0,30.11,SSW,200,2.0,8.0,38,-99.99,,,-99.99,,2013-02-17 01:52:00,
2013-02-16 19:01:00,34.0,11.0,30.10,South,187,4.0,10.0,38,-99.99,,,-99.99,,2013-02-17 02:01:00,
2013-02-16 19:11:00,34.0,11.0,30.10,South,187,4.0,10.0,38,-99.99,,,-99.99,,2013-02-17 02:11:00,
2013-02-16 19:21:00,34.0,11.0,30.10,South,188,6.0,12.0,38,-99.99,,,-99.99,,2013-02-17 02:21:00,
2013-02-16 19:31:00,36.0,10.0,30.10,South,180,3.0,8.0,33,-99.99,,,-99.99,,2013-02-17 02:31:00,
2013-02-16 19:41:00,36.0,10.0,30.10,South,180,3.0,8.0,33,-99.99,,,-99.99,,2013-02-17 02:41:00,
2013-02-16 19:52:00,36.0,8.0,30.09,South,176,4.0,7.0,30,-99.99,,,-99.99,,2013-02-17 02:52:00,
2013-02-16 20:01:00,33.0,8.0,30.09,SW,217,2.0,9.0,35,-99.99,,,-99.99,,2013-02-17 03:01:00,
2013-02-16 20:11:00,33.0,8.0,30.09,SW,217,2.0,9.0,35,-99.99,,,-99.99,,2013-02-17 03:11:00,
2013-02-16 20:21:00,33.0,8.0,30.09,SSE,158,1.0,5.0,34,-99.99,,,-99.99,,2013-02-17 03:21:00,
2013-02-16 20:31:00,32.0,7.0,30.07,SSE,163,1.0,5.0,34,-99.99,,,-99.99,,2013-02-17 03:31:00,
2013-02-16 20:42:00,32.0,7.0,30.07,SSE,163,1.0,5.0,34,-99.99,,,-99.99,,2013-02-17 03:42:00,
2013-02-16 20:52:00,33.0,6.0,30.07,South,171,0.0,5.0,31,-99.99,,,-99.99,,2013-02-17 03:52:00,
2013-02-16 21:01:00,33.0,5.0,30.06,SSW,194,1.0,5.0,30,-99.99,,,-99.99,,2013-02-17 04:01:00,
2013-02-16 21:11:00,33.0,5.0,-100.00,SSW,194,1.0,5.0,30,-99.99,,,-99.99,,2013-02-17 04:11:00,
2013-02-16 21:21:00,32.0,6.0,30.06,SSE,168,0.0,3.0,32,-99.99,,,-99.99,,2013-02-17 04:21:00,
2013-02-16 21:31:00,32.0,6.0,30.06,WNW,285,1.0,7.0,32,-99.99,,,-99.99,,2013-02-17 04:31:00,
2013-02-16 21:41:00,32.0,6.0,30.06,WNW,285,1.0,7.0,32,-99.99,,,-99.99,,2013-02-17 04:41:00,
2013-02-16 21:52:00,34.0,4.0,30.05,SSW,208,1.0,5.0,27,-99.99,,,-99.99,,2013-02-17 04:52:00,
2013-02-16 22:01:00,37.0,0.0,30.05,South,191,4.0,11.0,20,-99.99,,,-99.99,,2013-02-17 05:01:00,
2013-02-16 22:11:00,37.0,0.0,30.05,South,191,4.0,11.0,20,-99.99,,,-99.99,,2013-02-17 05:11:00,
2013-02-16 22:22:00,38.0,-2.0,30.05,South,180,6.0,12.0,18,-99.99,,,-99.99,,2013-02-17 05:22:00,
2013-02-16 22:32:00,38.0,-2.0,30.04,South,179,8.0,13.0,18,-99.99,,,-99.99,,2013-02-17 05:32:00,
2013-02-16 22:42:00,38.0,-2.0,30.04,South,179,8.0,13.0,18,-99.99,,,-99.99,,2013-02-17 05:42:00,
2013-02-16 22:52:00,38.0,-3.0,30.04,South,181,6.0,13.0,17,-99.99,,,-99.99,,2013-02-17 05:52:00,
2013-02-16 23:02:00,35.0,2.0,30.02,SSW,194,2.0,7.0,24,-99.99,,,-99.99,,2013-02-17 06:02:00,
2013-02-16 23:11:00,35.0,2.0,-100.00,SSW,194,2.0,7.0,24,-99.99,,,-99.99,,2013-02-17 06:11:00,
2013-02-16 23:21:00,37.0,-1.0,30.02,South,191,5.0,11.0,19,-99.99,,,-99.99,,2013-02-17 06:21:00,
2013-02-16 23:31:00,37.0,-3.0,30.01,SSW,192,4.0,11.0,18,-99.99,,,-99.99,,2013-02-17 06:31:00,
2013-02-16 23:41:00,37.0,-3.0,30.01,SSW,192,4.0,11.0,18,-99.99,,,-99.99,,2013-02-17 06:41:00,
2013-02-16 23:52:00,37.0,-4.0,30.01,South,186,6.0,9.0,17,-99.99,,,-99.99,,2013-02-17 06:52:00,